Welcome to the New NWS' Forecast!
Most changes are behind the scenes, but click here for differences you might notice.

Regional Weather Roundup (RWR)

Issued by National Weather Service (NWS)

                            
525 
ASUS43 KBIS 201302
RWRND 

NORTH DAKOTA REGIONAL WEATHER ROUNDUP
NATIONAL WEATHER SERVICE BISMARCK ND
800 AM CDT MON AUG 20 2018

NOTE: "FAIR" INDICATES FEW OR NO CLOUDS BELOW 12,000 FEET WITH NO
SIGNIFICANT WEATHER AND/OR OBSTRUCTIONS TO VISIBILITY.


NDZ001>003-009>011-017-201400-
NORTHWEST NORTH DAKOTA
  
CITY           SKY/WX    TMP DP  RH WIND       PRES   REMARKS
WILLISTON      CLEAR     46  38  73 NE3       30.27R                  
MINOT          SUNNY     51  42  71 W5        30.25R                  
MINOT AFB      SUNNY     46  41  81 NW5       30.25R                  
$$
 
NDZ018>021-031>035-040>046-201400-
SOUTHWEST NORTH DAKOTA
  
CITY           SKY/WX    TMP DP  RH WIND       PRES   REMARKS
BISMARCK       SUNNY     52  46  80 W5        30.23R                  
DICKINSON      PTCLDY    44  38  79 NW6       30.25R                  
GARRISON         N/A     47  42  83 N7        30.24R                  
HETTINGER ARPT PTCLDY    42  39  89 CALM      30.25R                  
$$
 
NDZ004>008-012>016-024-026-027-054-201400-
NORTHEAST NORTH DAKOTA
  
CITY           SKY/WX    TMP DP  RH WIND       PRES   REMARKS
GRAND FORKS    FAIR      53  53 100 N12       30.15R                  
GRND FRKS AFB  FAIR      55  52  88 N12       30.17R                  
DEVILS LAKE    FAIR      51  48  89 N8        30.22R                  
$$
 
NDZ022-023-025-028>030-036>039-047>053-201400-
SOUTHEAST NORTH DAKOTA
  
CITY           SKY/WX    TMP DP  RH WIND       PRES   REMARKS
FARGO          FAIR      53  52  96 N10       30.11R                  
JAMESTOWN      SUNNY     52  50  93 N8        30.17R                  
$$